Regional Weather Roundup
Issued by NWS Green Bay, WI

Home | Current Version | Previous Version | Text Only | Print | Product List | Glossary On
Versions: 1 2 3 4 5 6 7 8 9 10 11 12 13 14 15 16 17 18 19 20 21 22 23 24 25 26 27 28 29 30 31 32 33 34 35 36 37 38 39 40 41 42 43 44 45 46 47 48 49 50
000
ASUS43 KGRB 171011
RWRGRB

NORTH-CENTRAL AND NORTHEAST WISCONSIN REGIONAL WEATHER ROUNDUP
NATIONAL WEATHER SERVICE GREEN BAY WI
400 AM CST SUN DEC 17 2017

WIZ005-009-010>012-018-019-171100-
NORTH CENTRAL WISCONSIN

CITY           SKY/WX    TMP DP  RH WIND       PRES   REMARKS
IRONWOOD       CLOUDY    21  19  92 SW7       30.11F
MANITOWISH WTR CLOUDY    20  20 100 S5        30.11R
ARBOR VITAE    CLOUDY    22  20  93 S6        30.11R FOG
EAGLE RIVER    CLOUDY    19  19 100 SE5       30.11R
LAND O LAKES   CLOUDY    19  17  95 SE7       30.12R WCI   9
RHINELANDER    CLOUDY    21  20  96 SE7       30.11R FOG
PHILLIPS       CLOUDY    21  21 100 CALM      30.11R
ANTIGO         CLOUDY    20  20  99 E6        30.11S
TOMAHAWK       CLOUDY    21  19  93 CALM      30.12S
MERRILL        CLOUDY    22  21  96 CALM      30.12S
$$

WIZ013-073-171100-
NORTHEAST WISCONSIN

CITY           SKY/WX    TMP DP  RH WIND       PRES   REMARKS
IRON MOUNTAIN  CLOUDY    17  13  84 VRB5      30.16R WCI  10
MARINETTE      CLOUDY    21  18  88 N7        30.18S
OCONTO         CLOUDY    22  19  89 N3        30.17R
$$

WIZ017-030-035>037-045-171100-
CENTRAL WISCONSIN

CITY           SKY/WX    TMP DP  RH WIND       PRES   REMARKS
MEDFORD        CLOUDY    22  19  91 E7        30.08F
WAUSAU         CLOUDY    22  19  89 E6        30.10F
MOSINEE        CLOUDY    21  21 100 E7        30.12F
MARSHFIELD     CLOUDY    23  20  88 E9        30.09S
WISC RAPIDS    CLOUDY    24  19  81 E7        30.13R
STEVENS POINT  CLOUDY    21  20  96 E6        30.13S
WAUPACA        CLOUDY    26  22  83 CALM      30.16R
SHAWANO        CLOUDY    23  20  88 N3        30.17R
CLINTONVILLE   NOT AVBL
WAUTOMA        CLOUDY    25  22  88 NE7       30.14R
$$

WIZ038-039-048-051-171100-
FOX VALLEY

CITY           SKY/WX    TMP DP  RH WIND       PRES   REMARKS
NWS GREEN BAY  CLOUDY    27  22  81 N6        30.15R
APPLETON       CLOUDY    27  21  80 N6        30.13R
OSHKOSH        CLOUDY    29  25  85 NE5       30.12S
FOND DU LAC    CLOUDY    30  25  81 NE6       30.11F
$$

WIZ022-050-052-171100-
EAST CENTRAL WISCONSIN

CITY           SKY/WX    TMP DP  RH WIND       PRES   REMARKS
EPHRAIM        CLOUDY    27  23  85 E5        30.16S
WASHINGTON ISL CLOUDY    26  21  82 E6        30.19R
STURGEON BAY   CLOUDY    28  24  85 E5        30.17S
MANITOWOC      CLOUDY    30  27  88 E9        30.15R
SHEBOYGAN      CLOUDY    31  28  89 E8        30.12S
$$

LMZ563-521-522-541>543-171100-
LAKESHORE

STATION/POSITION TIME  TEMP    WIND        PRES    VSBY  WAVE
                       AIR SEA DIR/SP/G                  HT/PER
                 (UTC) (F)     (DEG/KT/KT) (MB)    (MI)  (FT/S)
SHEBOYGAN LKSHOR 1000   32      90/ 11/ 11 1020.9R
KEWAUNEE LKSHORE 0942   30      90/  8/ 12 1020.1F
NORTHPORT PIER   0940   28      70/ 14/ 16 1022.0S
SISTER BAY LKSHO 0920   28      90/  4/  6   N/A
MENOMINEE LKSHOR 0942   29      50/ 13/ 14 1021.2F
$$




USA.gov is the U.S. government's official web portal to all federal, state and local government web resources and services.